Year,Month,Day,Hour,Minute,Value (Times are PST for temperature in C)
2012,09,18,00,00,13.30
2012,09,18,00,01,13.30
2012,09,18,00,02,13.30
2012,09,18,00,03,13.40
2012,09,18,00,04,13.40
2012,09,18,00,05,13.40
2012,09,18,00,06,13.40
2012,09,18,00,07,13.40
2012,09,18,00,08,13.40
2012,09,18,00,09,13.40
2012,09,18,00,10,13.40
2012,09,18,00,11,13.30
2012,09,18,00,12,13.30
2012,09,18,00,13,13.30
2012,09,18,00,14,13.30
2012,09,18,00,15,13.20
2012,09,18,00,16,13.20
2012,09,18,00,17,13.20
2012,09,18,00,18,13.10
2012,09,18,00,19,13.10
2012,09,18,00,20,13.00
2012,09,18,00,21,13.00
2012,09,18,00,22,12.90
2012,09,18,00,23,12.90
2012,09,18,00,24,12.90
2012,09,18,00,25,12.80
2012,09,18,00,26,12.80
2012,09,18,00,27,12.80
2012,09,18,00,28,12.80
2012,09,18,00,29,12.80
2012,09,18,00,30,12.80
2012,09,18,00,31,12.70
2012,09,18,00,32,12.70
2012,09,18,00,33,12.70
2012,09,18,00,34,12.70
2012,09,18,00,35,12.60
2012,09,18,00,36,12.60
2012,09,18,00,37,12.60
2012,09,18,00,38,12.60
2012,09,18,00,39,12.60
2012,09,18,00,40,12.60
2012,09,18,00,41,12.60
2012,09,18,00,42,12.60
2012,09,18,00,43,12.50
2012,09,18,00,44,12.50
2012,09,18,00,45,12.50
2012,09,18,00,46,12.50
2012,09,18,00,47,12.50
2012,09,18,00,48,12.50
2012,09,18,00,49,12.50
2012,09,18,00,50,12.50
2012,09,18,00,51,12.50
2012,09,18,00,52,12.40
2012,09,18,00,53,12.40
2012,09,18,00,54,12.40
2012,09,18,00,55,12.40
2012,09,18,00,56,12.30
2012,09,18,00,57,12.40
2012,09,18,00,58,12.40
2012,09,18,00,59,12.40
2012,09,18,01,00,12.40
2012,09,18,01,01,12.40
2012,09,18,01,02,12.40
2012,09,18,01,03,12.30
2012,09,18,01,04,12.30
2012,09,18,01,05,12.30
2012,09,18,01,06,12.30
2012,09,18,01,07,12.30
2012,09,18,01,08,12.30
2012,09,18,01,09,12.30
2012,09,18,01,10,12.30
2012,09,18,01,11,12.20
2012,09,18,01,12,12.20
2012,09,18,01,13,12.20
2012,09,18,01,14,12.10
2012,09,18,01,15,12.10
2012,09,18,01,16,12.10
2012,09,18,01,17,12.10
2012,09,18,01,18,12.10
2012,09,18,01,19,12.00
2012,09,18,01,20,12.00
2012,09,18,01,21,12.00
2012,09,18,01,22,12.00
2012,09,18,01,23,12.00
2012,09,18,01,24,12.00
2012,09,18,01,25,12.00
2012,09,18,01,26,12.00
2012,09,18,01,27,12.00
2012,09,18,01,28,12.00
2012,09,18,01,29,12.00
2012,09,18,01,30,11.90
2012,09,18,01,31,12.00
2012,09,18,01,32,11.90
2012,09,18,01,33,11.90
2012,09,18,01,34,11.90
2012,09,18,01,35,11.90
2012,09,18,01,36,11.90
2012,09,18,01,37,11.90
2012,09,18,01,38,11.90
2012,09,18,01,39,11.90
2012,09,18,01,40,11.90
2012,09,18,01,41,11.80
2012,09,18,01,42,11.80
2012,09,18,01,43,11.90
2012,09,18,01,44,11.90
2012,09,18,01,45,11.90
2012,09,18,01,46,11.90
2012,09,18,01,47,11.90
2012,09,18,01,48,11.80
2012,09,18,01,49,11.90
2012,09,18,01,50,11.90
2012,09,18,01,51,11.90
2012,09,18,01,52,11.90
2012,09,18,01,53,11.90
2012,09,18,01,54,11.90
2012,09,18,01,55,11.90
2012,09,18,01,56,11.90
2012,09,18,01,57,11.90
2012,09,18,01,58,11.90
2012,09,18,01,59,11.80
2012,09,18,02,00,11.90
2012,09,18,02,01,11.80
2012,09,18,02,02,11.80
2012,09,18,02,03,11.80
2012,09,18,02,04,11.80
2012,09,18,02,05,11.80
2012,09,18,02,06,11.80
2012,09,18,02,07,11.80
2012,09,18,02,08,11.80
2012,09,18,02,09,11.80
2012,09,18,02,10,11.80
2012,09,18,02,11,11.80
2012,09,18,02,12,11.80
2012,09,18,02,13,11.90
2012,09,18,02,14,11.90
2012,09,18,02,15,12.00
2012,09,18,02,16,12.10
2012,09,18,02,17,12.10
2012,09,18,02,18,12.20
2012,09,18,02,19,12.20
2012,09,18,02,20,12.20
2012,09,18,02,21,12.20
2012,09,18,02,22,12.30
2012,09,18,02,23,12.20
2012,09,18,02,24,12.30
2012,09,18,02,25,12.30
2012,09,18,02,26,12.30
2012,09,18,02,27,12.40
2012,09,18,02,28,12.40
2012,09,18,02,29,12.50
2012,09,18,02,30,12.50
2012,09,18,02,31,12.60
2012,09,18,02,32,12.60
2012,09,18,02,33,12.70
2012,09,18,02,34,12.70
2012,09,18,02,35,12.70
2012,09,18,02,36,12.80
2012,09,18,02,37,12.80
2012,09,18,02,38,12.80
2012,09,18,02,39,12.80
2012,09,18,02,40,12.70
2012,09,18,02,41,12.70
2012,09,18,02,42,12.70
2012,09,18,02,43,12.70
2012,09,18,02,44,12.60
2012,09,18,02,45,12.60
2012,09,18,02,46,12.60
2012,09,18,02,47,12.50
2012,09,18,02,48,12.50
2012,09,18,02,49,12.50
2012,09,18,02,50,12.50
2012,09,18,02,51,12.40
2012,09,18,02,52,12.50
2012,09,18,02,53,12.40
2012,09,18,02,54,12.40
2012,09,18,02,55,12.40
2012,09,18,02,56,12.30
2012,09,18,02,57,12.30
2012,09,18,02,58,12.30
2012,09,18,02,59,12.20
2012,09,18,03,00,12.20
2012,09,18,03,01,12.10
2012,09,18,03,02,12.10
2012,09,18,03,03,12.10
2012,09,18,03,04,12.20
2012,09,18,03,05,12.00
2012,09,18,03,06,12.00
2012,09,18,03,07,12.00
2012,09,18,03,08,12.00
2012,09,18,03,09,11.90
2012,09,18,03,10,11.90
2012,09,18,03,11,11.90
2012,09,18,03,12,11.90
2012,09,18,03,13,11.90
2012,09,18,03,14,11.90
2012,09,18,03,15,11.90
2012,09,18,03,16,11.80
2012,09,18,03,17,11.80
2012,09,18,03,18,11.80
2012,09,18,03,19,11.80
2012,09,18,03,20,11.80
2012,09,18,03,21,11.80
2012,09,18,03,22,11.80
2012,09,18,03,23,11.80
2012,09,18,03,24,11.80
2012,09,18,03,25,11.80
2012,09,18,03,26,11.80
2012,09,18,03,27,11.80
2012,09,18,03,28,11.80
2012,09,18,03,29,11.80
2012,09,18,03,30,11.80
2012,09,18,03,31,11.80
2012,09,18,03,32,11.80
2012,09,18,03,33,11.80
2012,09,18,03,34,11.80
2012,09,18,03,35,11.80
2012,09,18,03,36,11.80
2012,09,18,03,37,11.80
2012,09,18,03,38,11.80
2012,09,18,03,39,11.80
2012,09,18,03,40,11.90
2012,09,18,03,41,11.90
2012,09,18,03,42,11.90
2012,09,18,03,43,11.90
2012,09,18,03,44,11.90
2012,09,18,03,45,11.90
2012,09,18,03,46,11.90
2012,09,18,03,47,11.90
2012,09,18,03,48,11.90
2012,09,18,03,49,11.90
2012,09,18,03,50,11.90
2012,09,18,03,51,11.90
2012,09,18,03,52,11.90
2012,09,18,03,53,11.90
2012,09,18,03,54,11.90
2012,09,18,03,55,11.90
2012,09,18,03,56,11.90
2012,09,18,03,57,11.90
2012,09,18,03,58,11.90
2012,09,18,03,59,11.90
2012,09,18,04,00,11.90
2012,09,18,04,01,11.90
2012,09,18,04,02,11.90
2012,09,18,04,03,11.90
2012,09,18,04,04,11.90
2012,09,18,04,05,11.90
2012,09,18,04,06,11.90
2012,09,18,04,07,11.90
2012,09,18,04,08,11.90
2012,09,18,04,09,11.90
2012,09,18,04,10,11.90
2012,09,18,04,11,12.00
2012,09,18,04,12,12.00
2012,09,18,04,13,12.00
2012,09,18,04,14,12.00
2012,09,18,04,15,12.00
2012,09,18,04,16,11.90
2012,09,18,04,17,11.90
2012,09,18,04,18,11.90
2012,09,18,04,19,11.90
2012,09,18,04,20,11.90
2012,09,18,04,21,12.00
2012,09,18,04,22,12.00
2012,09,18,04,23,12.10
2012,09,18,04,24,12.20
2012,09,18,04,25,12.20
2012,09,18,04,26,12.30
2012,09,18,04,27,12.30
2012,09,18,04,28,12.30
2012,09,18,04,29,12.30
2012,09,18,04,30,12.20
2012,09,18,04,31,12.20
2012,09,18,04,32,12.20
2012,09,18,04,33,12.10
2012,09,18,04,34,12.10
2012,09,18,04,35,12.10
2012,09,18,04,36,12.10
2012,09,18,04,37,12.00
2012,09,18,04,38,12.00
2012,09,18,04,39,11.90
2012,09,18,04,40,11.90
2012,09,18,04,41,11.80
2012,09,18,04,42,11.80
2012,09,18,04,43,11.80
2012,09,18,04,44,11.80
2012,09,18,04,45,11.80
2012,09,18,04,46,11.80
2012,09,18,04,47,11.80
2012,09,18,04,48,11.70
2012,09,18,04,49,11.70
2012,09,18,04,50,11.70
2012,09,18,04,51,11.70
2012,09,18,04,52,11.60
2012,09,18,04,53,11.60
2012,09,18,04,54,11.60
2012,09,18,04,55,11.60
2012,09,18,04,56,11.60
2012,09,18,04,57,11.60
2012,09,18,04,58,11.60
2012,09,18,04,59,11.50
2012,09,18,05,00,11.40
2012,09,18,05,01,11.40
2012,09,18,05,02,11.40
2012,09,18,05,03,11.40
2012,09,18,05,04,11.40
2012,09,18,05,05,11.40
2012,09,18,05,06,11.40
2012,09,18,05,07,11.40
2012,09,18,05,08,11.40
2012,09,18,05,09,11.30
2012,09,18,05,10,11.20
2012,09,18,05,11,11.20
2012,09,18,05,12,11.10
2012,09,18,05,13,11.20
2012,09,18,05,14,11.20
2012,09,18,05,15,11.20
2012,09,18,05,16,11.20
2012,09,18,05,17,11.20
2012,09,18,05,18,11.30
2012,09,18,05,19,11.30
2012,09,18,05,20,11.30
2012,09,18,05,21,11.30
2012,09,18,05,22,11.30
2012,09,18,05,23,11.30
2012,09,18,05,24,11.40
2012,09,18,05,25,11.40
2012,09,18,05,26,11.40
2012,09,18,05,27,11.40
2012,09,18,05,28,11.40
2012,09,18,05,29,11.40
2012,09,18,05,30,11.30
2012,09,18,05,31,11.30
2012,09,18,05,32,11.30
2012,09,18,05,33,11.30
2012,09,18,05,34,11.30
2012,09,18,05,35,11.20
2012,09,18,05,36,11.20
2012,09,18,05,37,11.20
2012,09,18,05,38,11.20
2012,09,18,05,39,11.20
2012,09,18,05,40,11.20
2012,09,18,05,41,11.20
2012,09,18,05,42,11.10
2012,09,18,05,43,11.10
2012,09,18,05,44,11.10
2012,09,18,05,45,11.10
2012,09,18,05,46,11.10
2012,09,18,05,47,11.10
2012,09,18,05,48,11.00
2012,09,18,05,49,10.90
2012,09,18,05,50,10.90
2012,09,18,05,51,10.90
2012,09,18,05,52,10.90
2012,09,18,05,53,10.90
2012,09,18,05,54,10.80
2012,09,18,05,55,10.80
2012,09,18,05,56,10.80
2012,09,18,05,57,10.80
2012,09,18,05,58,10.80
2012,09,18,05,59,10.80
2012,09,18,06,00,10.80
2012,09,18,06,01,10.80
2012,09,18,06,02,10.80
2012,09,18,06,03,10.80
2012,09,18,06,04,10.80
2012,09,18,06,05,10.80
2012,09,18,06,06,10.80
2012,09,18,06,07,10.80
2012,09,18,06,08,10.80
2012,09,18,06,09,10.80
2012,09,18,06,10,10.80
2012,09,18,06,11,10.80
2012,09,18,06,12,10.80
2012,09,18,06,13,10.80
2012,09,18,06,14,10.90
2012,09,18,06,15,10.90
2012,09,18,06,16,10.90
2012,09,18,06,17,10.90
2012,09,18,06,18,10.90
2012,09,18,06,19,10.90
2012,09,18,06,20,10.90
2012,09,18,06,21,10.90
2012,09,18,06,22,10.90
2012,09,18,06,23,10.80
2012,09,18,06,24,10.80
2012,09,18,06,25,10.80
2012,09,18,06,26,10.70
2012,09,18,06,27,10.70
2012,09,18,06,28,10.70
2012,09,18,06,29,10.80
2012,09,18,06,30,10.80
2012,09,18,06,31,10.90
2012,09,18,06,32,10.90
2012,09,18,06,33,10.90
2012,09,18,06,34,10.90
2012,09,18,06,35,10.90
2012,09,18,06,36,10.90
2012,09,18,06,37,10.90
2012,09,18,06,38,10.90
2012,09,18,06,39,10.90
2012,09,18,06,40,10.90
2012,09,18,06,41,11.00
2012,09,18,06,42,11.10
2012,09,18,06,43,11.10
2012,09,18,06,44,11.10
2012,09,18,06,45,11.10
2012,09,18,06,46,11.10
2012,09,18,06,47,11.10
2012,09,18,06,48,11.10
2012,09,18,06,49,11.10
2012,09,18,06,50,11.10
2012,09,18,06,51,11.10
2012,09,18,06,52,11.10
2012,09,18,06,53,11.10
2012,09,18,06,54,11.10
2012,09,18,06,55,11.00
2012,09,18,06,56,10.90
2012,09,18,06,57,10.90
2012,09,18,06,58,10.90
2012,09,18,06,59,10.90
2012,09,18,07,00,10.90
2012,09,18,07,01,10.90
2012,09,18,07,02,10.80
2012,09,18,07,03,10.80
2012,09,18,07,04,10.80
2012,09,18,07,05,10.70
2012,09,18,07,06,10.70
2012,09,18,07,07,10.70
2012,09,18,07,08,10.70
2012,09,18,07,09,10.60
2012,09,18,07,10,10.60
2012,09,18,07,11,10.60
2012,09,18,07,12,10.60
2012,09,18,07,13,10.60
2012,09,18,07,14,10.60
2012,09,18,07,15,10.70
2012,09,18,07,16,10.70
2012,09,18,07,17,10.70
2012,09,18,07,18,10.80
2012,09,18,07,19,10.80
2012,09,18,07,20,10.90
2012,09,18,07,21,10.90
2012,09,18,07,22,10.90
2012,09,18,07,23,11.00
2012,09,18,07,24,11.10
2012,09,18,07,25,11.10
2012,09,18,07,26,11.10
2012,09,18,07,27,11.20
2012,09,18,07,28,11.20
2012,09,18,07,29,11.20
2012,09,18,07,30,11.30
2012,09,18,07,31,11.30
2012,09,18,07,32,11.40
2012,09,18,07,33,11.40
2012,09,18,07,34,11.40
2012,09,18,07,35,11.40
2012,09,18,07,36,11.50
2012,09,18,07,37,11.60
2012,09,18,07,38,11.60
2012,09,18,07,39,11.60
2012,09,18,07,40,11.60
2012,09,18,07,41,11.60
2012,09,18,07,42,11.60
2012,09,18,07,43,11.60
2012,09,18,07,44,11.60
2012,09,18,07,45,11.60
2012,09,18,07,46,11.70
2012,09,18,07,47,11.70
2012,09,18,07,48,11.80
2012,09,18,07,49,11.80
2012,09,18,07,50,11.90
2012,09,18,07,51,12.00
2012,09,18,07,52,12.00
2012,09,18,07,53,12.10
2012,09,18,07,54,12.20
2012,09,18,07,55,12.30
2012,09,18,07,56,12.30
2012,09,18,07,57,12.40
2012,09,18,07,58,12.50
2012,09,18,07,59,12.50
2012,09,18,08,00,12.60
2012,09,18,08,01,12.70
2012,09,18,08,02,12.80
2012,09,18,08,03,12.80
2012,09,18,08,04,12.90
2012,09,18,08,05,13.00
2012,09,18,08,06,13.10
2012,09,18,08,07,13.10
2012,09,18,08,08,13.20
2012,09,18,08,09,13.30
2012,09,18,08,10,13.30
2012,09,18,08,11,13.40
2012,09,18,08,12,13.50
2012,09,18,08,13,13.60
2012,09,18,08,14,13.60
2012,09,18,08,15,13.70
2012,09,18,08,16,13.80
2012,09,18,08,17,13.90
2012,09,18,08,18,14.00
2012,09,18,08,19,14.00
2012,09,18,08,20,14.20
2012,09,18,08,21,14.30
2012,09,18,08,22,14.50
2012,09,18,08,23,14.60
2012,09,18,08,24,14.70
2012,09,18,08,25,14.80
2012,09,18,08,26,14.90
2012,09,18,08,27,15.00
2012,09,18,08,28,15.00
2012,09,18,08,29,15.10
2012,09,18,08,30,15.10
2012,09,18,08,31,15.10
2012,09,18,08,32,15.20
2012,09,18,08,33,15.20
2012,09,18,08,34,15.20
2012,09,18,08,35,15.20
2012,09,18,08,36,15.20
2012,09,18,08,37,15.20
2012,09,18,08,38,15.20
2012,09,18,08,39,15.20
2012,09,18,08,40,15.30
2012,09,18,08,41,15.30
2012,09,18,08,42,15.30
2012,09,18,08,43,15.40
2012,09,18,08,44,15.50
2012,09,18,08,45,15.50
2012,09,18,08,46,15.60
2012,09,18,08,47,15.70
2012,09,18,08,48,15.80
2012,09,18,08,49,15.80
2012,09,18,08,50,15.90
2012,09,18,08,51,15.90
2012,09,18,08,52,16.00
2012,09,18,08,53,16.10
2012,09,18,08,54,16.10
2012,09,18,08,55,16.10
2012,09,18,08,56,16.10
2012,09,18,08,57,16.20
2012,09,18,08,58,16.20
2012,09,18,08,59,16.20
2012,09,18,09,00,16.30
2012,09,18,09,01,16.30
2012,09,18,09,02,16.40
2012,09,18,09,03,16.40
2012,09,18,09,04,16.50
2012,09,18,09,05,16.60
2012,09,18,09,06,16.60
2012,09,18,09,07,16.70
2012,09,18,09,08,16.80
2012,09,18,09,09,16.80
2012,09,18,09,10,16.90
2012,09,18,09,11,17.00
2012,09,18,09,12,17.00
2012,09,18,09,13,17.10
2012,09,18,09,14,17.10
2012,09,18,09,15,17.20
2012,09,18,09,16,17.20
2012,09,18,09,17,17.20
2012,09,18,09,18,17.20
2012,09,18,09,19,17.20
2012,09,18,09,20,17.30
2012,09,18,09,21,17.30
2012,09,18,09,22,17.40
2012,09,18,09,23,17.50
2012,09,18,09,24,17.50
2012,09,18,09,25,17.60
2012,09,18,09,26,17.70
2012,09,18,09,27,17.70
2012,09,18,09,28,17.90
2012,09,18,09,29,18.00
2012,09,18,09,30,18.10
2012,09,18,09,31,18.20
2012,09,18,09,32,18.30
2012,09,18,09,33,18.40
2012,09,18,09,34,18.50
2012,09,18,09,35,18.60
2012,09,18,09,36,18.70
2012,09,18,09,37,18.80
2012,09,18,09,38,18.80
2012,09,18,09,39,18.90
2012,09,18,09,40,18.90
2012,09,18,09,41,18.90
2012,09,18,09,42,19.00
2012,09,18,09,43,19.10
2012,09,18,09,44,19.10
2012,09,18,09,45,19.10
2012,09,18,09,46,19.10
2012,09,18,09,47,19.10
2012,09,18,09,48,19.10
2012,09,18,09,49,19.10
2012,09,18,09,50,19.10
2012,09,18,09,51,19.10
2012,09,18,09,52,19.10
2012,09,18,09,53,19.10
2012,09,18,09,54,19.10
2012,09,18,09,55,19.20
2012,09,18,09,56,19.20
2012,09,18,09,57,19.20
2012,09,18,09,58,19.20
2012,09,18,09,59,19.20
2012,09,18,10,00,19.20
2012,09,18,10,01,19.20
2012,09,18,10,02,19.30
2012,09,18,10,03,19.30
2012,09,18,10,04,19.40
2012,09,18,10,05,19.40
2012,09,18,10,06,19.40
2012,09,18,10,07,19.40
2012,09,18,10,08,19.50
2012,09,18,10,09,19.50
2012,09,18,10,10,19.50
2012,09,18,10,11,19.60
2012,09,18,10,12,19.60
2012,09,18,10,13,19.60
2012,09,18,10,14,19.70
2012,09,18,10,15,19.70
2012,09,18,10,16,19.80
2012,09,18,10,17,19.80
2012,09,18,10,18,19.90
2012,09,18,10,19,19.90
2012,09,18,10,20,19.90
2012,09,18,10,21,19.90
2012,09,18,10,22,19.90
2012,09,18,10,23,19.90
2012,09,18,10,24,20.00
2012,09,18,10,25,20.10
2012,09,18,10,26,20.20
2012,09,18,10,27,20.20
2012,09,18,10,28,20.20
2012,09,18,10,29,20.20
2012,09,18,10,30,20.20
2012,09,18,10,31,20.20
2012,09,18,10,32,20.20
2012,09,18,10,33,20.20
2012,09,18,10,34,20.20
2012,09,18,10,35,20.20
2012,09,18,10,36,20.20
2012,09,18,10,37,20.20
2012,09,18,10,38,20.10
2012,09,18,10,39,20.10
2012,09,18,10,40,20.10
2012,09,18,10,41,20.10
2012,09,18,10,42,19.90
2012,09,18,10,43,20.00
2012,09,18,10,44,20.10
2012,09,18,10,45,20.10
2012,09,18,10,46,20.10
2012,09,18,10,47,20.20
2012,09,18,10,48,20.20
2012,09,18,10,49,20.20
2012,09,18,10,50,20.20
2012,09,18,10,51,20.20
2012,09,18,10,52,20.20
2012,09,18,10,53,20.20
2012,09,18,10,54,20.20
2012,09,18,10,55,20.20
2012,09,18,10,56,20.20
2012,09,18,10,57,20.20
2012,09,18,10,58,20.20
2012,09,18,10,59,20.20
2012,09,18,11,00,20.20
2012,09,18,11,01,20.20
2012,09,18,11,02,20.30
2012,09,18,11,03,20.30
2012,09,18,11,04,20.40
2012,09,18,11,05,20.40
2012,09,18,11,06,20.50
2012,09,18,11,07,20.50
2012,09,18,11,08,20.60
2012,09,18,11,09,20.70
2012,09,18,11,10,20.80
2012,09,18,11,11,20.80
2012,09,18,11,12,20.90
2012,09,18,11,13,20.90
2012,09,18,11,14,21.00
2012,09,18,11,15,21.00
2012,09,18,11,16,21.10
2012,09,18,11,17,21.10
2012,09,18,11,18,21.10
2012,09,18,11,19,21.10
2012,09,18,11,20,21.10
2012,09,18,11,21,21.10
2012,09,18,11,22,21.10
2012,09,18,11,23,21.20
2012,09,18,11,24,21.20
2012,09,18,11,25,21.20
2012,09,18,11,26,21.20
2012,09,18,11,27,21.30
2012,09,18,11,28,21.30
2012,09,18,11,29,21.30
2012,09,18,11,30,21.30
2012,09,18,11,31,21.30
2012,09,18,11,32,21.30
2012,09,18,11,33,21.30
2012,09,18,11,34,21.30
2012,09,18,11,35,21.40
2012,09,18,11,36,21.40
2012,09,18,11,37,21.40
2012,09,18,11,38,21.50
2012,09,18,11,39,21.60
2012,09,18,11,40,21.60
2012,09,18,11,41,21.60
2012,09,18,11,42,21.60
2012,09,18,11,43,21.60
2012,09,18,11,44,21.60
2012,09,18,11,45,21.60
2012,09,18,11,46,21.60
2012,09,18,11,47,21.50
2012,09,18,11,48,21.40
2012,09,18,11,49,21.40
2012,09,18,11,50,21.40
2012,09,18,11,51,21.50
2012,09,18,11,52,21.60
2012,09,18,11,53,21.60
2012,09,18,11,54,21.60
2012,09,18,11,55,21.60
2012,09,18,11,56,21.60
2012,09,18,11,57,21.60
2012,09,18,11,58,21.60
2012,09,18,11,59,21.60
2012,09,18,12,00,21.60
2012,09,18,12,01,21.60
2012,09,18,12,02,21.60
2012,09,18,12,03,21.60
2012,09,18,12,04,21.70
2012,09,18,12,05,21.80
2012,09,18,12,06,21.80
2012,09,18,12,07,22.00
2012,09,18,12,08,22.00
2012,09,18,12,09,22.10
2012,09,18,12,10,22.20
2012,09,18,12,11,22.20
2012,09,18,12,12,22.20
2012,09,18,12,13,22.20
2012,09,18,12,14,22.20
2012,09,18,12,15,22.20
2012,09,18,12,16,22.10
2012,09,18,12,17,22.10
2012,09,18,12,18,22.10
2012,09,18,12,19,22.10
2012,09,18,12,20,22.10
2012,09,18,12,21,22.10
2012,09,18,12,22,22.10
2012,09,18,12,23,22.10
2012,09,18,12,24,22.10
2012,09,18,12,25,22.10
2012,09,18,12,26,22.10
2012,09,18,12,27,22.10
2012,09,18,12,28,22.20
2012,09,18,12,29,22.10
2012,09,18,12,30,22.10
2012,09,18,12,31,22.10
2012,09,18,12,32,22.10
2012,09,18,12,33,22.10
2012,09,18,12,34,22.10
2012,09,18,12,35,22.10
2012,09,18,12,36,22.10
2012,09,18,12,37,22.10
2012,09,18,12,38,22.10
2012,09,18,12,39,22.20
2012,09,18,12,40,22.20
2012,09,18,12,41,22.30
2012,09,18,12,42,22.30
2012,09,18,12,43,22.40
2012,09,18,12,44,22.40
2012,09,18,12,45,22.50
2012,09,18,12,46,22.50
2012,09,18,12,47,22.60
2012,09,18,12,48,22.60
2012,09,18,12,49,22.60
2012,09,18,12,50,22.70
2012,09,18,12,51,22.70
2012,09,18,12,52,22.70
2012,09,18,12,53,22.70
2012,09,18,12,54,22.70
2012,09,18,12,55,22.70
2012,09,18,12,56,22.70
2012,09,18,12,57,22.70
2012,09,18,12,58,22.70
2012,09,18,12,59,22.70
2012,09,18,13,00,22.70
2012,09,18,13,01,22.70
2012,09,18,13,02,22.70
2012,09,18,13,03,22.70
2012,09,18,13,04,22.70
2012,09,18,13,05,22.70
2012,09,18,13,06,22.70
2012,09,18,13,07,22.80
2012,09,18,13,08,22.80
2012,09,18,13,09,22.80
2012,09,18,13,10,22.90
2012,09,18,13,11,22.90
2012,09,18,13,12,22.90
2012,09,18,13,13,22.90
2012,09,18,13,14,22.90
2012,09,18,13,15,22.90
2012,09,18,13,16,22.90
2012,09,18,13,17,23.00
2012,09,18,13,18,23.10
2012,09,18,13,19,23.10
2012,09,18,13,20,23.10
2012,09,18,13,21,23.10
2012,09,18,13,22,23.20
2012,09,18,13,23,23.20
2012,09,18,13,24,23.30
2012,09,18,13,25,23.30
2012,09,18,13,26,23.30
2012,09,18,13,27,23.20
2012,09,18,13,28,23.20
2012,09,18,13,29,23.20
2012,09,18,13,30,23.30
2012,09,18,13,31,23.30
2012,09,18,13,32,23.30
2012,09,18,13,33,23.40
2012,09,18,13,34,23.50
2012,09,18,13,35,23.60
2012,09,18,13,36,23.70
2012,09,18,13,37,23.70
2012,09,18,13,38,23.70
2012,09,18,13,39,23.70
2012,09,18,13,40,23.50
2012,09,18,13,41,23.10
2012,09,18,13,42,22.60
2012,09,18,13,43,22.00
2012,09,18,13,44,21.60
2012,09,18,13,45,21.30
2012,09,18,13,46,20.90
2012,09,18,13,47,20.70
2012,09,18,13,48,20.50
2012,09,18,13,49,20.20
2012,09,18,13,50,20.00
2012,09,18,13,51,19.90
2012,09,18,13,52,19.80
2012,09,18,13,53,19.80
2012,09,18,13,54,19.80
2012,09,18,13,55,19.70
2012,09,18,13,56,19.40
2012,09,18,13,57,19.20
2012,09,18,13,58,19.10
2012,09,18,13,59,19.10
2012,09,18,14,00,19.10
2012,09,18,14,01,19.10
2012,09,18,14,02,18.90
2012,09,18,14,03,18.80
2012,09,18,14,04,18.60
2012,09,18,14,05,18.60
2012,09,18,14,06,18.50
2012,09,18,14,07,18.50
2012,09,18,14,08,18.60
2012,09,18,14,09,18.60
2012,09,18,14,10,18.50
2012,09,18,14,11,18.30
2012,09,18,14,12,18.00
2012,09,18,14,13,17.80
2012,09,18,14,14,17.60
2012,09,18,14,15,17.70
2012,09,18,14,16,17.70
2012,09,18,14,17,17.90
2012,09,18,14,18,17.90
2012,09,18,14,19,17.80
2012,09,18,14,20,17.60
2012,09,18,14,21,17.50
2012,09,18,14,22,17.40
2012,09,18,14,23,17.30
2012,09,18,14,24,17.40
2012,09,18,14,25,17.40
2012,09,18,14,26,17.50
2012,09,18,14,27,17.50
2012,09,18,14,28,17.40
2012,09,18,14,29,17.40
2012,09,18,14,30,17.30
2012,09,18,14,31,17.20
2012,09,18,14,32,17.10
2012,09,18,14,33,17.20
2012,09,18,14,34,17.30
2012,09,18,14,35,17.40
2012,09,18,14,36,17.40
2012,09,18,14,37,17.50
2012,09,18,14,38,17.60
2012,09,18,14,39,17.60
2012,09,18,14,40,17.70
2012,09,18,14,41,17.90
2012,09,18,14,42,17.90
2012,09,18,14,43,18.00
2012,09,18,14,44,18.00
2012,09,18,14,45,17.90
2012,09,18,14,46,17.90
2012,09,18,14,47,17.90
2012,09,18,14,48,17.80
2012,09,18,14,49,17.70
2012,09,18,14,50,17.70
2012,09,18,14,51,17.70
2012,09,18,14,52,17.80
2012,09,18,14,53,17.70
2012,09,18,14,54,17.70
2012,09,18,14,55,17.80
2012,09,18,14,56,17.90
2012,09,18,14,57,17.90
2012,09,18,14,58,18.00
2012,09,18,14,59,18.10
2012,09,18,15,00,18.20
2012,09,18,15,01,18.20
2012,09,18,15,02,18.30
2012,09,18,15,03,18.40
2012,09,18,15,04,18.40
2012,09,18,15,05,18.50
2012,09,18,15,06,18.60
2012,09,18,15,07,18.70
2012,09,18,15,08,18.80
2012,09,18,15,09,18.90
2012,09,18,15,10,19.10
2012,09,18,15,11,19.30
2012,09,18,15,12,19.40
2012,09,18,15,13,19.50
2012,09,18,15,14,19.50
2012,09,18,15,15,19.40
2012,09,18,15,16,19.50
2012,09,18,15,17,19.60
2012,09,18,15,18,19.80
2012,09,18,15,19,19.90
2012,09,18,15,20,20.00
2012,09,18,15,21,20.10
2012,09,18,15,22,20.00
2012,09,18,15,23,19.70
2012,09,18,15,24,19.20
2012,09,18,15,25,18.70
2012,09,18,15,26,18.30
2012,09,18,15,27,18.20
2012,09,18,15,28,18.20
2012,09,18,15,29,18.40
2012,09,18,15,30,18.50
2012,09,18,15,31,18.60
2012,09,18,15,32,18.60
2012,09,18,15,33,18.70
2012,09,18,15,34,18.70
2012,09,18,15,35,18.70
2012,09,18,15,36,18.80
2012,09,18,15,37,18.90
2012,09,18,15,38,18.90
2012,09,18,15,39,18.90
2012,09,18,15,40,18.90
2012,09,18,15,41,18.90
2012,09,18,15,42,18.90
2012,09,18,15,43,18.90
2012,09,18,15,44,18.80
2012,09,18,15,45,18.80
2012,09,18,15,46,18.80
2012,09,18,15,47,18.80
2012,09,18,15,48,18.80
2012,09,18,15,49,18.90
2012,09,18,15,50,19.10
2012,09,18,15,51,19.20
2012,09,18,15,52,19.30
2012,09,18,15,53,19.40
2012,09,18,15,54,19.50
2012,09,18,15,55,19.50
2012,09,18,15,56,19.40
2012,09,18,15,57,19.40
2012,09,18,15,58,19.50
2012,09,18,15,59,19.60
2012,09,18,16,00,19.70
2012,09,18,16,01,19.70
2012,09,18,16,02,19.70
2012,09,18,16,03,19.70
2012,09,18,16,04,19.70
2012,09,18,16,05,19.70
2012,09,18,16,06,19.80
2012,09,18,16,07,19.90
2012,09,18,16,08,19.80
2012,09,18,16,09,19.80
2012,09,18,16,10,19.70
2012,09,18,16,11,19.70
2012,09,18,16,12,19.70
2012,09,18,16,13,19.80
2012,09,18,16,14,19.70
2012,09,18,16,15,19.50
2012,09,18,16,16,19.40
2012,09,18,16,17,19.20
2012,09,18,16,18,19.10
2012,09,18,16,19,18.90
2012,09,18,16,20,18.90
2012,09,18,16,21,18.80
2012,09,18,16,22,18.70
2012,09,18,16,23,18.70
2012,09,18,16,24,18.70
2012,09,18,16,25,18.70
2012,09,18,16,26,18.70
2012,09,18,16,27,18.70
2012,09,18,16,28,18.80
2012,09,18,16,29,18.90
2012,09,18,16,30,19.10
2012,09,18,16,31,19.10
2012,09,18,16,32,19.10
2012,09,18,16,33,19.10
2012,09,18,16,34,19.10
2012,09,18,16,35,19.10
2012,09,18,16,36,19.00
2012,09,18,16,37,18.90
2012,09,18,16,38,19.00
2012,09,18,16,39,19.10
2012,09,18,16,40,19.20
2012,09,18,16,41,19.30
2012,09,18,16,42,19.40
2012,09,18,16,43,19.40
2012,09,18,16,44,19.40
2012,09,18,16,45,19.40
2012,09,18,16,46,19.40
2012,09,18,16,47,19.40
2012,09,18,16,48,19.30
2012,09,18,16,49,19.30
2012,09,18,16,50,19.40
2012,09,18,16,51,19.40
2012,09,18,16,52,19.40
2012,09,18,16,53,19.50
2012,09,18,16,54,19.50
2012,09,18,16,55,19.50
2012,09,18,16,56,19.40
2012,09,18,16,57,19.40
2012,09,18,16,58,19.30
2012,09,18,16,59,19.20
2012,09,18,17,00,19.10
2012,09,18,17,01,19.10
2012,09,18,17,02,19.10
2012,09,18,17,03,19.20
2012,09,18,17,04,19.30
2012,09,18,17,05,19.40
2012,09,18,17,06,19.40
2012,09,18,17,07,19.40
2012,09,18,17,08,19.50
2012,09,18,17,09,19.50
2012,09,18,17,10,19.60
2012,09,18,17,11,19.60
2012,09,18,17,12,19.60
2012,09,18,17,13,19.60
2012,09,18,17,14,19.50
2012,09,18,17,15,19.50
2012,09,18,17,16,19.50
2012,09,18,17,17,19.50
2012,09,18,17,18,19.50
2012,09,18,17,19,19.60